Location: Kawakawa
(35.3830°S, 174.0670°E)
Time: 01:31:04
(UTC+13:00)

Explorer 7 - Pass Details

Date: 13 December 2019
Orbit: 485 x 679 km, 50.3° (Epoch: 24 January)

Event Time Altitude Azimuth Distance (km) Brightness Sun altitude
Rises 09:51:16 0° 222° (SW) 2,589 10.0 43.9°
Reaches altitude 10° 09:53:40 10° 210° (SSW) 1,715 9.2 44.4°
Maximum altitude 09:57:01 27° 150° (SSE) 1,010 8.8 45.1°
Drops below altitude 10° 10:00:28 10° 90° (E) 1,768 10.4 45.8°
Sets 10:02:58 0° 78° (ENE) 2,685 11.0 46.3°
